User: anonymous   Login
Location: Wharf Road Observatory
(44.7802°N, 65.6070°W)
Time: 05:40:31
(UTC-04:00)
Language:

CUBEBUG 2 - Orbit

View from above orbital plane
View from above orbital plane
View from above satellite
View from above satellite

Ground track
Ground track

The orbit data is extracted from the following two-line orbital elements,

1 39440U 13066AA  24063.83012134  .00004401  00000-0  53802-3 0  9993
2 39440  97.8031   9.9503 0069831 258.0307 101.3072 14.82034414552724
Epoch (UTC): 03 March 2024 19:55:22
Eccentricity: 0.0069831
inclination: 97.8031°
perigee height: 574 km
apogee height: 672 km
right ascension of ascending node: 9.9503°
argument of perigee: 258.0307°
revolutions per day: 14.82034414
mean anomaly at epoch: 101.3072°
orbit number at epoch: 55272

The dashed part of the orbit path shows where the satellite is in the earth's shadow,  

DLR